Location: Bavegemberg
(50.9500°N, 3.8833°E)
Time: 10:04:35
(UTC+00:00)

Cosmos 2360 Rocket - Pass Details

Date: 23 May 2024
Orbit: 832 x 846 km, 71.0° (Epoch: 14 June)

Event Time Altitude Azimuth Distance (km) Brightness Sun altitude
Rises 01:56:35 0° 329° (NNW) 3,417 5.7 -12.5°
Reaches altitude 10° 01:59:02 10° 329° (NNW) 2,479 5.0 -12.3°
Maximum altitude 02:04:45 85° 243° (WSW) 857 2.2 -11.8°
Drops below altitude 10° 02:10:25 10° 155° (SSE) 2,463 4.3 -11.3°
Sets 02:12:51 0° 155° (SSE) 3,393 5.1 -11.0°
